[[{"header":{"parameterUnit":"m.s-1","parameterCategory":1,"la1":30.2991,"la2":30.254,"lo1":-89.0895,"lo2":-89.0444,"dy":0.0017,"dx":0.0017,"nx":28,"ny":28,"refTime":"2023-08-31T03:00:00:Z","depth":0,"parameterNumber":2,"parameterNumberName":"U-component_of_WINDS"},"data":[0,0,0,0,0,0,0,0,0,0,0,0,0,0,0,0,0,0,0,0,0,0,0,0,0,0,0,0,0,0,0,0,0,0,0,0,0,0,0,0,0,0,0,0,0,0,0,0,0,0,0,0,0,0,0,0,0,0,-0.8073,-0.8072,0,-0.8014,-0.8013,-0.8012,-0.7968,-0.7968,-0.7967,-0.7967,-0.7905,-0.7904,-0.7902,0,0,0,0,0,0,0,0,0,0,0,0,0,-0.8145,-0.8144,-0.8073,-0.8072,-0.8071,-0.8014,-0.8013,-0.8012,-0.7968,-0.7968,-0.7967,-0.7967,-0.7905,-0.7904,-0.7902,0,0,0,0,0,0,0,0,0,0,0,0,0,-0.8103,-0.8144,-0.8073,-0.8043,-0.8039,-0.8014,-0.8013,-0.8012,-0.7968,-0.7968,-0.7967,-0.7967,-0.7906,-0.7904,-0.7902,-0.7902,0,0,-0.7896,-0.7895,0,0,0,0,0,0,0,0,-0.8105,-0.81,-0.8048,-0.8045,-0.8041,-0.7998,-0.8016,-0.7975,-0.7968,-0.7995,-0.7967,-0.7966,-0.7936,-0.7932,-0.7922,-0.7899,-0.7896,-0.7896,-0.7895,-0.7894,-0.7893,0,0,0,0,0,0,0,-0.8108,-0.8103,-0.8049,-0.8047,-0.8043,-0.8031,-0.8024,-0.8008,-0.797,-0.7993,-0.7989,-0.7983,-0.7934,-0.7924,-0.792,-0.7895,-0.7896,-0.7894,-0.7893,-0.7892,-0.7867,-0.7868,0,0,0,0,0,0,-0.8116,-0.8105,-0.8051,-0.8048,-0.8072,-0.803,-0.8023,-0.8012,-0.797,-0.7963,-0.7984,-0.7981,-0.7927,-0.7922,-0.7918,-0.7913,-0.7894,-0.7892,-0.7891,-0.7867,-0.7867,-0.7868,0,0,0,0,0,0,-0.8118,-0.8112,-0.8054,-0.8075,-0.8067,-0.803,-0.8018,-0.8011,-0.8001,-0.7963,-0.7956,-0.798,-0.7927,-0.792,-0.7906,-0.791,-0.7891,-0.7889,-0.7866,-0.7867,-0.7868,-0.7905,0,0,0,0,0,0,-0.812,-0.8113,-0.8113,-0.8076,-0.8066,-0.8044,-0.8018,-0.8011,-0.7998,-0.7994,-0.7958,-0.7951,-0.7926,-0.7909,-0.7904,-0.7907,-0.7888,-0.7865,-0.7866,-0.7867,-0.7903,-0.7907,-0.7911,0,0,0,0,0,-0.8123,-0.8126,-0.8113,-0.8107,-0.8066,-0.8044,-0.8038,-0.801,-0.7998,-0.7998,-0.7973,-0.7952,-0.7911,-0.7908,-0.7902,-0.7905,-0.7865,-0.7866,-0.7867,-0.7902,-0.7907,-0.791,0,0,0,0,0,0,-0.8164,-0.812,-0.8106,-0.8097,-0.8075,-0.8037,-0.8035,-0.8016,-0.7995,-0.7993,-0.7957,-0.795,-0.7938,-0.792,-0.7917,-0.7901,-0.7885,-0.7885,-0.7914,-0.7918,-0.7921,-0.7925,-0.7886,0,0,0,0,0,-0.8172,-0.8159,-0.8121,-0.8117,-0.8106,-0.8073,-0.8062,-0.8042,-0.8017,-0.8007,-0.7981,-0.7958,-0.7939,-0.7927,-0.7908,-0.7901,-0.7891,-0.79,-0.7904,-0.7907,-0.7907,-0.79,-0.7903,-0.7871,-0.7871,-0.7871,0,0,-0.8189,-0.8163,-0.8157,-0.8124,-0.8105,-0.8091,-0.8065,-0.8052,-0.804,-0.8005,-0.7989,-0.797,-0.794,-0.7929,-0.7923,-0.7914,-0.7913,-0.7908,-0.7911,-0.7909,-0.7901,-0.7904,-0.7907,-0.7872,-0.7872,-0.7872,0,0,-0.8211,-0.8191,-0.8185,-0.8165,-0.8136,-0.8113,-0.8112,-0.8076,-0.8062,-0.8046,-0.8019,-0.8005,-0.7974,-0.7954,-0.794,-0.7954,-0.7933,-0.7949,-0.7967,-0.7961,-0.7963,-0.7965,-0.7969,-0.7971,-0.7949,-0.7949,-0.7949,0,-0.8235,-0.8214,-0.8184,-0.8172,-0.8158,-0.8125,-0.8118,-0.81,-0.8066,-0.8057,-0.8047,-0.8007,-0.7985,-0.7968,-0.7971,-0.7961,-0.7957,-0.7952,-0.7965,-0.7967,-0.7968,-0.7971,-0.7973,-0.7951,-0.7951,-0.7951,-0.7951,0,-0.8244,-0.8229,-0.8227,-0.8195,-0.8181,-0.8171,-0.8139,-0.8128,-0.8109,-0.8088,-0.8071,-0.8044,-0.8018,-0.8012,-0.7994,-0.7992,-0.7987,-0.7972,-0.7955,-0.7974,-0.7976,-0.7977,-0.7954,-0.7953,-0.7953,-0.7952,0,0,-0.829,-0.8241,-0.8241,-0.8225,-0.819,-0.8178,-0.8166,-0.8141,-0.8132,-0.811,-0.8098,-0.8073,-0.8058,-0.8042,-0.8021,-0.8015,-0.8027,-0.8,-0.7999,-0.8005,-0.8022,-0.8032,-0.8034,-0.8013,-0.8013,-0.8014,-0.8024,0,-0.8306,-0.8284,-0.8256,-0.8243,-0.8229,-0.8197,-0.8187,-0.8164,-0.8143,-0.8127,-0.8104,-0.8086,-0.8069,-0.8058,-0.8052,-0.8027,-0.8029,-0.8026,-0.8001,-0.8,-0.8008,-0.8036,-0.8047,-0.8058,-0.8024,-0.8025,-0.8025,0,-0.8322,-0.8301,-0.8286,-0.8251,-0.8244,-0.8235,-0.821,-0.8195,-0.8168,-0.8153,-0.8135,-0.8112,-0.8097,-0.8083,-0.8061,-0.8059,-0.8047,-0.8033,-0.8033,-0.8029,-0.8013,-0.8031,-0.8061,-0.8062,-0.8026,-0.8026,-0.8026,0,-0.8355,-0.8323,-0.831,-0.8298,-0.8257,-0.8252,-0.8234,-0.8207,-0.8193,-0.8171,-0.8161,-0.8137,-0.8124,-0.8106,-0.8076,-0.8069,-0.8057,-0.8041,-0.8043,-0.8044,-0.8041,-0.8042,-0.8069,-0.8036,-0.8036,-0.8036,-0.8036,0,-0.8375,-0.8367,-0.8325,-0.8317,-0.8306,-0.8274,-0.8265,-0.8245,-0.822,-0.8207,-0.8178,-0.8166,-0.8129,-0.8112,-0.8089,-0.8074,-0.8068,-0.8055,-0.8049,-0.8057,-0.8058,-0.8048,-0.8046,-0.8036,-0.8036,-0.8036,-0.8036,0,-0.8411,-0.8382,-0.8365,-0.8328,-0.8319,-0.8313,-0.828,-0.8271,-0.8248,-0.8232,-0.8226,-0.819,-0.8169,-0.8138,-0.8108,-0.8092,-0.808,-0.807,-0.8089,-0.8085,-0.8089,-0.8089,-0.8109,-0.811,-0.8078,-0.8079,-0.8079,0,-0.8425,-0.8418,-0.838,-0.8369,-0.8353,-0.8336,-0.8322,-0.829,-0.8277,-0.8244,-0.8238,-0.8215,-0.8194,-0.8162,-0.8132,-0.8108,-0.8098,-0.8106,-0.8094,-0.8102,-0.8096,-0.8096,-0.8095,-0.8109,-0.811,-0.811,-0.8111,0,-0.8452,-0.8438,-0.842,-0.8396,-0.838,-0.836,-0.8338,-0.833,-0.8294,-0.828,-0.8258,-0.8242,-0.821,-0.8187,-0.8159,-0.814,-0.8119,-0.8115,-0.8114,-0.8122,-0.8132,-0.8125,-0.8096,-0.8114,-0.8114,-0.8114,-0.8113,-0.8113,-0.8477,-0.8469,-0.844,-0.842,-0.84,-0.838,-0.8369,-0.8345,-0.8327,-0.8299,-0.8281,-0.826,-0.8231,-0.8192,-0.8174,-0.8156,-0.8147,-0.8146,-0.8146,-0.8146,-0.8148,-0.8136,-0.8151,-0.8151,-0.815,-0.815,-0.815,0,-0.8501,-0.8482,-0.8464,-0.8434,-0.8418,-0.84,-0.8375,-0.8362,-0.8344,-0.8319,-0.83,-0.8274,-0.8251,-0.822,-0.8194,-0.8186,-0.8175,-0.818,-0.818,-0.8176,-0.8158,-0.816,-0.8189,-0.8189,-0.8189,-0.8189,-0.8189,-0.8189,-0.8513,-0.8498,-0.848,-0.8455,-0.8435,-0.8414,-0.8401,-0.8382,-0.8362,-0.8335,-0.8316,-0.8296,-0.8268,-0.8241,-0.8218,-0.821,-0.8201,-0.8209,-0.8197,-0.8181,-0.8177,-0.8174,-0.8176,-0.8207,-0.8207,-0.8216,-0.8216,-0.8216]},{"header":{"parameterUnit":"m.s-1","parameterCategory":1,"la1":30.2991,"la2":30.254,"lo1":-89.0895,"lo2":-89.0444,"dy":0.0017,"dx":0.0017,"nx":28,"ny":28,"refTime":"2023-08-31T03:00:00:Z","depth":0,"parameterNumber":3,"parameterNumberName":"V-component_of_WINDS"},"data":[0,0,0,0,0,0,0,0,0,0,0,0,0,0,0,0,0,0,0,0,0,0,0,0,0,0,0,0,0,0,0,0,0,0,0,0,0,0,0,0,0,0,0,0,0,0,0,0,0,0,0,0,0,0,0,0,0,0,-3.3979,-3.3981,0,-3.4167,-3.4169,-3.4171,-3.4224,-3.4222,-3.4221,-3.422,-3.4409,-3.4415,-3.4421,0,0,0,0,0,0,0,0,0,0,0,0,0,-3.3663,-3.3669,-3.3979,-3.3982,-3.3984,-3.4167,-3.4169,-3.4172,-3.4224,-3.4222,-3.4221,-3.422,-3.4407,-3.4414,-3.4421,0,0,0,0,0,0,0,0,0,0,0,0,0,-3.3821,-3.3671,-3.3979,-3.4032,-3.4039,-3.4166,-3.4169,-3.4173,-3.4224,-3.4222,-3.4221,-3.4219,-3.4405,-3.4414,-3.4422,-3.451,0,0,-3.445,-3.4454,0,0,0,0,0,0,0,0,-3.3812,-3.3832,-3.4022,-3.4028,-3.4036,-3.417,-3.4127,-3.4286,-3.4224,-3.4153,-3.422,-3.4219,-3.4331,-3.4346,-3.4384,-3.4519,-3.4527,-3.4451,-3.4456,-3.446,-3.4463,0,0,0,0,0,0,0,-3.3801,-3.3824,-3.4053,-3.4024,-3.4033,-3.4046,-3.4066,-3.4158,-3.4248,-3.4159,-3.4164,-3.4185,-3.4334,-3.4375,-3.4389,-3.4529,-3.4451,-3.4459,-3.4464,-3.4468,-3.4746,-3.4748,0,0,0,0,0,0,-3.3781,-3.3815,-3.4047,-3.4059,-3.3918,-3.4053,-3.4076,-3.4129,-3.4248,-3.4264,-3.4187,-3.4187,-3.4361,-3.4379,-3.4396,-3.4506,-3.446,-3.4469,-3.4474,-3.4744,-3.4747,-3.4749,0,0,0,0,0,0,-3.3774,-3.3801,-3.404,-3.3938,-3.397,-3.406,-3.4119,-3.4133,-3.4175,-3.4268,-3.4284,-3.4212,-3.436,-3.4383,-3.4482,-3.4514,-3.4473,-3.4481,-3.4742,-3.4745,-3.4748,-3.4727,0,0,0,0,0,0,-3.3765,-3.3799,-3.3833,-3.3939,-3.3975,-3.4123,-3.4121,-3.4138,-3.419,-3.4193,-3.4296,-3.4312,-3.4361,-3.4468,-3.4491,-3.4525,-3.4488,-3.4739,-3.4743,-3.4747,-3.4726,-3.4729,-3.4733,0,0,0,0,0,-3.3753,-3.3819,-3.3834,-3.3862,-3.402,-3.4124,-3.4145,-3.4201,-3.4193,-3.4228,-3.4288,-3.4309,-3.4507,-3.4478,-3.4503,-3.4541,-3.4737,-3.4742,-3.4746,-3.4724,-3.4729,-3.4732,0,0,0,0,0,0,-3.3712,-3.3833,-3.3852,-3.3954,-3.4029,-3.4133,-3.4179,-3.4204,-3.4282,-3.428,-3.4346,-3.4369,-3.4462,-3.4512,-3.4477,-3.4633,-3.4623,-3.4632,-3.4597,-3.4602,-3.4605,-3.459,-3.4495,0,0,0,0,0,-3.3715,-3.3791,-3.3893,-3.3972,-3.4009,-3.4088,-3.4135,-3.4172,-3.4252,-3.4283,-3.4351,-3.4427,-3.4506,-3.4557,-3.4635,-3.4734,-3.4757,-3.4773,-3.4776,-3.4779,-3.4786,-3.4842,-3.485,-3.4763,-3.4763,-3.4763,0,0,-3.3721,-3.3797,-3.384,-3.3966,-3.4028,-3.4105,-3.4114,-3.4194,-3.4251,-3.4295,-3.4392,-3.4445,-3.4534,-3.4633,-3.468,-3.4677,-3.4816,-3.4784,-3.4786,-3.4792,-3.4848,-3.4856,-3.4863,-3.4767,-3.4766,-3.4765,0,0,-3.3772,-3.3837,-3.3911,-3.3974,-3.4069,-3.4121,-3.4139,-3.4241,-3.4278,-3.4377,-3.4412,-3.4481,-3.4617,-3.4679,-3.4728,-3.4805,-3.4827,-3.4829,-3.4846,-3.4901,-3.4907,-3.4914,-3.4941,-3.495,-3.4836,-3.4836,-3.4836,0,-3.3767,-3.3884,-3.3945,-3.4025,-3.4079,-3.4125,-3.42,-3.4258,-3.4373,-3.4409,-3.4405,-3.4577,-3.464,-3.4755,-3.4774,-3.4813,-3.4835,-3.4816,-3.4902,-3.4909,-3.4916,-3.4942,-3.4952,-3.4836,-3.4836,-3.4836,-3.4836,0,-3.3873,-3.3955,-3.4003,-3.4115,-3.4175,-3.4251,-3.4324,-3.4377,-3.441,-3.4462,-3.4563,-3.4641,-3.4736,-3.4767,-3.4798,-3.4886,-3.4882,-3.4889,-3.488,-3.4922,-3.4948,-3.4959,-3.4835,-3.4835,-3.4835,-3.4836,0,0,-3.39,-3.4047,-3.4064,-3.4116,-3.4226,-3.4289,-3.4368,-3.4463,-3.4508,-3.4586,-3.4654,-3.4769,-3.4777,-3.4833,-3.4873,-3.4921,-3.4977,-3.4922,-3.4926,-3.4929,-3.5078,-3.5071,-3.5082,-3.4993,-3.4995,-3.4997,-3.507,0,-3.3963,-3.4107,-3.4166,-3.4282,-3.4358,-3.4404,-3.4474,-3.4548,-3.46,-3.4671,-3.4729,-3.4809,-3.4814,-3.4848,-3.4898,-3.4959,-3.5007,-3.4955,-3.5055,-3.5058,-3.503,-3.5095,-3.5088,-3.5153,-3.5081,-3.5083,-3.5084,0,-3.4055,-3.4137,-3.4261,-3.4364,-3.4398,-3.4459,-3.4551,-3.4619,-3.4705,-3.474,-3.4804,-3.4841,-3.4926,-3.4913,-3.503,-3.4994,-3.5039,-3.5075,-3.5079,-3.5089,-3.5072,-3.5106,-3.5176,-3.5185,-3.5101,-3.51,-3.5098,0,-3.4061,-3.4202,-3.4295,-3.4338,-3.446,-3.4502,-3.4555,-3.4639,-3.4693,-3.4774,-3.481,-3.4899,-3.4947,-3.5015,-3.5076,-3.5061,-3.5188,-3.518,-3.5218,-3.5216,-3.5241,-3.5238,-3.5317,-3.5272,-3.5272,-3.5272,-3.5271,0,-3.4125,-3.4199,-3.43,-3.4356,-3.4441,-3.4508,-3.459,-3.4646,-3.4721,-3.4789,-3.4835,-3.4898,-3.4975,-3.5048,-3.5096,-3.5186,-3.5208,-3.5238,-3.5249,-3.5233,-3.5229,-3.5262,-3.5258,-3.5274,-3.5274,-3.5273,-3.5273,0,-3.4144,-3.4215,-3.432,-3.4428,-3.4457,-3.4514,-3.4606,-3.4663,-3.4718,-3.4804,-3.4828,-3.4915,-3.5003,-3.5071,-3.5185,-3.5218,-3.5313,-3.5326,-3.5284,-3.529,-3.5324,-3.5319,-3.5426,-3.5443,-3.5387,-3.5387,-3.5388,0,-3.4179,-3.4238,-3.4353,-3.4403,-3.4456,-3.4535,-3.4591,-3.466,-3.4716,-3.482,-3.4864,-3.4957,-3.5034,-3.5173,-3.5245,-3.5333,-3.5348,-3.538,-3.5361,-3.5343,-3.5348,-3.5343,-3.5349,-3.5381,-3.5381,-3.5381,-3.5382,0,-3.4234,-3.4267,-3.4346,-3.4439,-3.4505,-3.4581,-3.4657,-3.4695,-3.4778,-3.4839,-3.4931,-3.4991,-3.5109,-3.52,-3.5296,-3.5349,-3.5379,-3.5387,-3.5401,-3.5383,-3.5356,-3.5371,-3.5289,-3.5384,-3.5384,-3.5383,-3.5383,-3.5383,-3.4262,-3.4316,-3.4406,-3.4494,-3.456,-3.4631,-3.469,-3.4754,-3.4832,-3.4934,-3.4971,-3.5065,-3.5151,-3.5284,-3.5339,-3.5413,-3.5414,-3.5434,-3.5438,-3.5442,-3.544,-3.5346,-3.5431,-3.5431,-3.5431,-3.5431,-3.5431,0,-3.4318,-3.4379,-3.4459,-3.4566,-3.4635,-3.466,-3.4746,-3.4802,-3.4885,-3.4964,-3.504,-3.5146,-3.5235,-3.5315,-3.5408,-3.5452,-3.5468,-3.5474,-3.547,-3.5482,-3.5434,-3.5413,-3.5459,-3.5459,-3.5459,-3.5459,-3.5459,-3.5459,-3.4355,-3.4449,-3.4493,-3.462,-3.468,-3.4774,-3.4822,-3.4888,-3.4951,-3.5068,-3.5142,-3.5195,-3.5275,-3.5374,-3.5457,-3.5479,-3.551,-3.5512,-3.5537,-3.5489,-3.5486,-3.5482,-3.5462,-3.5519,-3.5519,-3.5579,-3.5579,-3.558]}]]